Location: ???
(35.5616°N, 139.7977°E)
Time: 18:52:52
(UTC+00:00)

Aureole 3 Rocket - Pass Details

Date: 17 November 2025
Orbit: 398 x 1690 km, 82.5° (Epoch: 08 December)

Event Time Altitude Azimuth Distance (km) Brightness Sun altitude
Rises 20:04:27 0° 347° (NNW) 3,402 6.6 -15.2°
Reaches altitude 10° 20:06:35 10° 343° (NNW) 2,625 6.0 -14.8°
Maximum altitude 20:12:36 59° 266° (W) 1,311 4.4 -13.6°
Drops below altitude 10° 20:20:45 10° 189° (S) 3,521 7.0 -12.0°
Sets 20:24:02 0° 186° (S) 4,647 7.6 -11.4°
